Time,TemperatureF,DewpointF,PressureIn,WindDirection,WindDirectionDegrees,WindSpeedMPH,WindSpeedGustMPH,Humidity,HourlyPrecipIn,Conditions,Clouds,dailyrainin,SoftwareType,DateUTC
2013-01-30 00:03:00,-6.6,-13.0,30.00,North,7,0.0,0.0,74,0.00,,,0.00,weatherlink.com 1.10,2013-01-30 09:03:00,
2013-01-30 00:18:00,-6.3,-13.0,30.00,North,7,0.0,0.0,74,0.00,,,0.00,weatherlink.com 1.10,2013-01-30 09:18:00,
2013-01-30 00:33:00,-6.0,-12.0,30.00,North,7,0.0,0.0,76,0.00,,,0.00,weatherlink.com 1.10,2013-01-30 09:33:00,
2013-01-30 00:48:00,-5.9,-12.0,30.01,North,7,0.0,0.0,75,0.00,,,0.00,weatherlink.com 1.10,2013-01-30 09:48:00,
2013-01-30 01:03:00,-5.9,-12.0,30.00,North,7,0.0,0.0,75,0.00,,,0.00,weatherlink.com 1.10,2013-01-30 10:03:00,
2013-01-30 01:18:00,-5.9,-12.0,30.00,North,7,0.0,0.0,76,0.00,,,0.00,weatherlink.com 1.10,2013-01-30 10:18:00,
2013-01-30 01:33:00,-6.1,-12.0,30.00,North,7,0.0,0.0,77,0.00,,,0.00,weatherlink.com 1.10,2013-01-30 10:33:00,
2013-01-30 01:49:00,-6.2,-12.0,30.00,North,7,0.0,0.0,77,0.00,,,0.00,weatherlink.com 1.10,2013-01-30 10:49:00,
2013-01-30 02:04:00,-6.5,-12.0,30.00,North,7,0.0,0.0,78,0.00,,,0.00,weatherlink.com 1.10,2013-01-30 11:04:00,
2013-01-30 02:19:00,-6.5,-11.0,30.01,North,7,0.0,0.0,79,0.00,,,0.00,weatherlink.com 1.10,2013-01-30 11:19:00,
2013-01-30 02:34:00,-6.1,-11.0,30.02,North,7,0.0,0.0,79,0.00,,,0.00,weatherlink.com 1.10,2013-01-30 11:34:00,
2013-01-30 02:49:00,-5.9,-11.0,30.01,North,7,0.0,0.0,79,0.00,,,0.00,weatherlink.com 1.10,2013-01-30 11:49:00,
2013-01-30 03:04:00,-5.9,-11.0,30.02,North,7,0.0,0.0,79,0.00,,,0.00,weatherlink.com 1.10,2013-01-30 12:04:00,
2013-01-30 03:19:00,-6.2,-11.0,30.02,North,7,0.0,0.0,78,0.00,,,0.00,weatherlink.com 1.10,2013-01-30 12:19:00,
2013-01-30 03:34:00,-6.8,-12.0,30.02,North,7,0.0,0.0,79,0.00,,,0.00,weatherlink.com 1.10,2013-01-30 12:34:00,
2013-01-30 03:49:00,-7.2,-12.0,30.02,North,7,0.0,0.0,79,0.00,,,0.00,weatherlink.com 1.10,2013-01-30 12:49:00,
2013-01-30 04:04:00,-7.0,-12.0,30.01,North,7,0.0,0.0,80,0.00,,,0.00,weatherlink.com 1.10,2013-01-30 13:04:00,
2013-01-30 04:19:00,-6.6,-11.0,30.01,North,7,0.0,0.0,80,0.00,,,0.00,weatherlink.com 1.10,2013-01-30 13:19:00,
2013-01-30 04:34:00,-5.9,-11.0,30.02,North,7,0.0,0.0,80,0.00,,,0.00,weatherlink.com 1.10,2013-01-30 13:34:00,
2013-01-30 04:49:00,-5.4,-10.0,30.02,North,7,0.0,0.0,80,0.00,,,0.00,weatherlink.com 1.10,2013-01-30 13:49:00,
2013-01-30 05:04:00,-5.0,-10.0,30.00,SSE,156,0.0,0.0,80,0.00,,,0.00,weatherlink.com 1.10,2013-01-30 14:04:00,
2013-01-30 05:20:00,-5.2,-10.0,30.00,WSW,239,0.0,0.0,80,0.00,,,0.00,weatherlink.com 1.10,2013-01-30 14:20:00,
2013-01-30 05:35:00,-5.1,-10.0,29.99,SW,214,0.0,1.0,79,0.00,,,0.00,weatherlink.com 1.10,2013-01-30 14:35:00,
2013-01-30 05:50:00,-4.8,-10.0,29.99,South,176,0.0,0.0,80,0.00,,,0.00,weatherlink.com 1.10,2013-01-30 14:50:00,
2013-01-30 06:05:00,-4.5,-9.0,29.99,South,176,0.0,0.0,79,0.00,,,0.00,weatherlink.com 1.10,2013-01-30 15:05:00,
2013-01-30 06:20:00,-4.3,-9.0,30.00,SW,224,0.0,0.0,80,0.00,,,0.00,weatherlink.com 1.10,2013-01-30 15:20:00,
2013-01-30 06:35:00,-3.9,-9.0,29.99,SW,224,0.0,0.0,80,0.00,,,0.00,weatherlink.com 1.10,2013-01-30 15:35:00,
2013-01-30 06:50:00,-3.9,-9.0,29.98,SW,223,0.0,0.0,80,0.00,,,0.00,weatherlink.com 1.10,2013-01-30 15:50:00,
2013-01-30 07:05:00,-3.8,-9.0,29.97,South,183,0.0,0.0,79,0.00,,,0.00,weatherlink.com 1.10,2013-01-30 16:05:00,
2013-01-30 07:20:00,-3.6,-9.0,29.97,South,181,0.0,0.0,79,0.00,,,0.00,weatherlink.com 1.10,2013-01-30 16:20:00,
2013-01-30 07:35:00,-3.3,-8.0,29.97,South,181,0.0,0.0,79,0.00,,,0.00,weatherlink.com 1.10,2013-01-30 16:35:00,
2013-01-30 07:50:00,-3.0,-8.0,29.97,SE,141,0.0,0.0,79,0.00,,,0.00,weatherlink.com 1.10,2013-01-30 16:50:00,
2013-01-30 08:05:00,-2.6,-7.0,29.96,SE,130,0.0,1.0,80,0.00,,,0.00,weatherlink.com 1.10,2013-01-30 17:05:00,
2013-01-30 08:20:00,-2.4,-7.0,29.96,SSE,155,0.0,1.0,80,0.00,,,0.00,weatherlink.com 1.10,2013-01-30 17:20:00,
2013-01-30 08:36:00,-2.4,-7.0,29.96,SSE,153,0.0,0.0,79,0.00,,,0.00,weatherlink.com 1.10,2013-01-30 17:36:00,
2013-01-30 08:51:00,-2.2,-7.0,29.95,SSE,153,0.0,0.0,79,0.00,,,0.00,weatherlink.com 1.10,2013-01-30 17:51:00,
2013-01-30 09:06:00,-1.9,-7.0,29.94,SSE,153,0.0,0.0,78,0.00,,,0.00,weatherlink.com 1.10,2013-01-30 18:06:00,
2013-01-30 09:21:00,-1.4,-6.0,29.94,SSE,153,0.0,0.0,79,0.00,,,0.00,weatherlink.com 1.10,2013-01-30 18:21:00,
2013-01-30 09:36:00,-1.2,-6.0,29.94,West,268,0.0,1.0,79,0.00,,,0.00,weatherlink.com 1.10,2013-01-30 18:36:00,
2013-01-30 09:51:00,-1.1,-6.0,29.93,West,268,0.0,0.0,78,0.00,,,0.00,weatherlink.com 1.10,2013-01-30 18:51:00,
2013-01-30 10:06:00,-0.9,-7.0,29.93,SE,124,0.0,0.0,77,0.00,,,0.00,weatherlink.com 1.10,2013-01-30 19:06:00,
2013-01-30 10:21:00,-1.0,-7.0,29.92,SE,124,0.0,0.0,77,0.00,,,0.00,weatherlink.com 1.10,2013-01-30 19:21:00,
2013-01-30 10:36:00,-0.9,-7.0,29.92,ESE,104,0.0,2.0,77,0.00,,,0.00,weatherlink.com 1.10,2013-01-30 19:36:00,
2013-01-30 10:51:00,-0.5,-6.0,29.92,ESE,104,0.0,0.0,78,0.00,,,0.00,weatherlink.com 1.10,2013-01-30 19:51:00,
2013-01-30 11:06:00,-0.2,-6.0,29.92,ESE,104,0.0,0.0,78,0.00,,,0.00,weatherlink.com 1.10,2013-01-30 20:06:00,
2013-01-30 11:21:00,-0.3,-6.0,29.91,ESE,104,0.0,0.0,77,0.00,,,0.00,weatherlink.com 1.10,2013-01-30 20:21:00,
2013-01-30 11:36:00,-0.3,-6.0,29.92,ESE,104,0.0,0.0,77,0.00,,,0.00,weatherlink.com 1.10,2013-01-30 20:36:00,
2013-01-30 11:51:00,-0.1,-6.0,29.92,ESE,104,0.0,0.0,77,0.00,,,0.00,weatherlink.com 1.10,2013-01-30 20:51:00,
2013-01-30 12:07:00,0.2,-5.0,29.91,ESE,104,0.0,0.0,78,0.00,,,0.00,weatherlink.com 1.10,2013-01-30 21:07:00,
2013-01-30 12:22:00,0.5,-5.0,29.90,ESE,104,0.0,0.0,77,0.00,,,0.00,weatherlink.com 1.10,2013-01-30 21:22:00,
2013-01-30 12:37:00,1.0,-5.0,29.89,ESE,104,0.0,1.0,76,0.00,,,0.00,weatherlink.com 1.10,2013-01-30 21:37:00,
2013-01-30 12:52:00,1.6,-4.0,29.88,ESE,105,0.0,0.0,78,0.00,,,0.00,weatherlink.com 1.10,2013-01-30 21:52:00,
2013-01-30 13:07:00,2.1,-4.0,29.88,ESE,105,0.0,0.0,76,0.00,,,0.00,weatherlink.com 1.10,2013-01-30 22:07:00,
2013-01-30 13:22:00,2.7,-4.0,29.87,ESE,105,0.0,0.0,75,0.00,,,0.00,weatherlink.com 1.10,2013-01-30 22:22:00,
2013-01-30 13:37:00,3.4,-3.0,29.85,ESE,115,0.0,0.0,75,0.00,,,0.00,weatherlink.com 1.10,2013-01-30 22:37:00,
2013-01-30 13:52:00,3.6,-3.0,29.85,SE,131,0.0,0.0,74,0.00,,,0.00,weatherlink.com 1.10,2013-01-30 22:52:00,
2013-01-30 14:07:00,3.6,-3.0,29.85,SE,131,0.0,0.0,74,0.00,,,0.00,weatherlink.com 1.10,2013-01-30 23:07:00,
2013-01-30 14:22:00,3.8,-3.0,29.85,SE,131,0.0,0.0,73,0.00,,,0.00,weatherlink.com 1.10,2013-01-30 23:22:00,
2013-01-30 14:37:00,4.1,-3.0,29.84,SE,131,0.0,0.0,74,0.00,,,0.00,weatherlink.com 1.10,2013-01-30 23:37:00,
2013-01-30 14:52:00,4.6,-2.0,29.84,SE,131,0.0,0.0,75,0.00,,,0.00,weatherlink.com 1.10,2013-01-30 23:52:00,
2013-01-30 15:07:00,4.6,-2.0,29.84,SE,129,0.0,0.0,74,0.00,,,0.00,weatherlink.com 1.10,2013-01-31 00:07:00,
2013-01-30 15:23:00,4.9,-2.0,29.84,SE,129,0.0,0.0,73,0.00,,,0.00,weatherlink.com 1.10,2013-01-31 00:23:00,
2013-01-30 15:38:00,5.2,-1.0,29.83,SE,131,0.0,0.0,74,0.00,,,0.00,weatherlink.com 1.10,2013-01-31 00:38:00,
2013-01-30 15:53:00,5.4,-1.0,29.82,East,98,0.0,1.0,75,0.00,,,0.00,weatherlink.com 1.10,2013-01-31 00:53:00,
2013-01-30 16:08:00,5.2,-1.0,29.80,ESE,107,0.0,1.0,76,0.00,,,0.00,weatherlink.com 1.10,2013-01-31 01:08:00,
2013-01-30 16:23:00,5.4,0.0,29.80,ENE,66,0.0,1.0,77,0.00,,,0.00,weatherlink.com 1.10,2013-01-31 01:23:00,
2013-01-30 16:38:00,5.6,-1.0,29.80,WNW,295,0.0,0.0,75,0.00,,,0.00,weatherlink.com 1.10,2013-01-31 01:38:00,
2013-01-30 16:53:00,5.8,0.0,29.80,WNW,295,0.0,0.0,77,0.00,,,0.00,weatherlink.com 1.10,2013-01-31 01:53:00,
2013-01-30 17:08:00,5.9,1.0,29.79,WNW,286,0.0,1.0,79,0.00,,,0.00,weatherlink.com 1.10,2013-01-31 02:08:00,
2013-01-30 17:23:00,5.8,0.0,29.78,East,89,0.0,1.0,78,0.00,,,0.00,weatherlink.com 1.10,2013-01-31 02:23:00,
2013-01-30 17:38:00,5.9,0.0,29.78,East,89,0.0,0.0,77,0.00,,,0.00,weatherlink.com 1.10,2013-01-31 02:38:00,
2013-01-30 17:53:00,6.2,0.0,29.77,East,89,0.0,0.0,77,0.00,,,0.00,weatherlink.com 1.10,2013-01-31 02:53:00,
2013-01-30 18:08:00,6.7,2.0,29.77,East,89,0.0,0.0,79,0.00,,,0.00,weatherlink.com 1.10,2013-01-31 03:08:00,
2013-01-30 18:23:00,6.9,1.0,29.77,East,89,0.0,0.0,76,0.00,,,0.00,weatherlink.com 1.10,2013-01-31 03:23:00,
2013-01-30 18:38:00,7.2,2.0,29.76,East,89,0.0,0.0,78,0.00,,,0.00,weatherlink.com 1.10,2013-01-31 03:38:00,
2013-01-30 18:54:00,7.3,2.0,29.77,East,89,0.0,0.0,77,0.00,,,0.00,weatherlink.com 1.10,2013-01-31 03:54:00,
2013-01-30 19:09:00,7.4,2.0,29.77,East,89,0.0,0.0,77,0.00,,,0.00,weatherlink.com 1.10,2013-01-31 04:09:00,
2013-01-30 19:24:00,7.7,3.0,29.76,East,89,0.0,0.0,79,0.00,,,0.00,weatherlink.com 1.10,2013-01-31 04:24:00,
2013-01-30 19:39:00,7.8,3.0,29.77,East,89,0.0,0.0,79,0.00,,,0.00,weatherlink.com 1.10,2013-01-31 04:39:00,
2013-01-30 19:54:00,8.1,3.0,29.75,East,89,0.0,0.0,80,0.00,,,0.00,weatherlink.com 1.10,2013-01-31 04:54:00,
2013-01-30 20:09:00,8.3,3.0,29.76,West,274,0.0,1.0,80,0.00,,,0.00,weatherlink.com 1.10,2013-01-31 05:09:00,
2013-01-30 20:24:00,8.5,4.0,29.77,West,274,0.0,0.0,81,0.00,,,0.00,weatherlink.com 1.10,2013-01-31 05:24:00,
2013-01-30 20:39:00,8.7,4.0,29.76,West,274,0.0,0.0,82,0.00,,,0.00,weatherlink.com 1.10,2013-01-31 05:39:00,
2013-01-30 20:54:00,8.9,5.0,29.76,North,9,0.0,0.0,82,0.00,,,0.00,weatherlink.com 1.10,2013-01-31 05:54:00,
2013-01-30 21:09:00,9.1,5.0,29.76,ENE,66,0.0,0.0,82,0.00,,,0.00,weatherlink.com 1.10,2013-01-31 06:09:00,
2013-01-30 21:24:00,9.3,5.0,29.77,WSW,257,0.0,0.0,82,0.00,,,0.00,weatherlink.com 1.10,2013-01-31 06:24:00,
2013-01-30 21:39:00,8.9,5.0,29.76,WSW,257,0.0,0.0,82,0.00,,,0.00,weatherlink.com 1.10,2013-01-31 06:39:00,
2013-01-30 21:54:00,8.5,4.0,29.76,WSW,257,0.0,0.0,82,0.00,,,0.00,weatherlink.com 1.10,2013-01-31 06:54:00,
2013-01-30 22:09:00,8.0,4.0,29.77,WSW,257,0.0,0.0,82,0.00,,,0.00,weatherlink.com 1.10,2013-01-31 07:09:00,
2013-01-30 22:25:00,7.8,3.0,29.77,WSW,257,0.0,0.0,82,0.00,,,0.00,weatherlink.com 1.10,2013-01-31 07:25:00,
2013-01-30 22:40:00,7.5,3.0,29.78,West,260,0.0,0.0,83,0.00,,,0.00,weatherlink.com 1.10,2013-01-31 07:40:00,
2013-01-30 22:55:00,7.4,3.0,29.77,West,266,0.0,0.0,83,0.00,,,0.00,weatherlink.com 1.10,2013-01-31 07:55:00,
2013-01-30 23:10:00,7.0,3.0,29.78,West,266,0.0,0.0,83,0.00,,,0.00,weatherlink.com 1.10,2013-01-31 08:10:00,
2013-01-30 23:25:00,6.8,3.0,29.78,West,266,0.0,0.0,83,0.00,,,0.00,weatherlink.com 1.10,2013-01-31 08:25:00,
2013-01-30 23:40:00,6.4,2.0,29.77,West,266,0.0,0.0,83,0.00,,,0.00,weatherlink.com 1.10,2013-01-31 08:40:00,
2013-01-30 23:55:00,6.1,2.0,29.78,West,266,0.0,0.0,83,0.00,,,0.00,weatherlink.com 1.10,2013-01-31 08:55:00,